Find Starlink 34798

NORAD ID: 65063 Int'l Des: 2025-165 Owner: SPXS Country: US Constellation: starlink operational
LEOCIRCULARRETROGRADESSO

現在のビュー

3D地球を読み込み中...

Starlink 34798について

説明を読み込み中...

次回通過

Passes for default location (London). Set your location on the main map for personalized predictions.

高度履歴

Loading altitude history...

軌道要素

1 65063U 25165H 26149.76647540 -.00001887 00000-0 -12672-3 0 9997
2 65063 97.4284 226.7296 0001548 138.7827 221.3517 15.05659243 46993
Epoch: May 29, 2026 • Age: 20 hours

現在のステータス

高度 563.7 km
速度 7.58 km/s
衛星直下点 -37.66°S, 63.82°W
打ち上げ日 Jul 31, 2025
運用期間 0.8 years
タイプ internet

技術仕様

分類 Payload
質量 575.00 kg
乾燥質量 530.00 kg
総質量 575.00 kg
長さ 0.30 m
直径 4.10 m
スパン 29.00 m
形状 Box + pan
製造者 SPXS
バスタイプ Starlink V2MO
フェーズステータス In Orbit
所有者/国 SPXS/US

Most Searched